STARLINK-34413 (64616 NORAD) Tracking and Keplerian Element Data

This shows tracking and keplerian element data for the satellite.

Feedback or suggestion? Click here.




ElementValue
Catalog64616
NameSTARLINK-34413
Epoch Orbit2864
Epoch Day354.17184205
Epoch Year2025
RAAN345.7749
Inclination53.1611
Eccentricity0.0001436
Argument of Perigee96.1433
Mean Anonmoly263.9735
Mean Motion15.39630765
Decay Rate0.00037558
L11 64616U 25137Y 25354.17184205 .00037558 00000+0 94396-3 0 9999
L22 64616 53.1611 345.7749 0001436 96.1433 263.9735 15.39630765 28641



Live tracking and technical data element details for STARLINK-34413 (NORAD 64616). STARLINK-34413 can be tracked NOW for your location showing map with azimuth and elevation plus other details from your city location.







IsCatalogInMostPopularTable: catalog: 64616, numindb: 3
Update: records affected: 1



GetName: 64616 STARLINK-34413

Hit Count: updated at: Sat, 07 Feb 2026 08:55:36 GMT